CW0005 Weather Reports


time (UTC)temp
C
wind
direction
speed
KPH
gust
KPH
rain 1hr
cm
rain 24hr
cm
rain mn
cm
humidity
%
barometer
mb
20260906171530 28 256 4.8 9.7 0.00 0.00 0.00 79 1018.1
20260906170033 28 217 0.0 8.0 0.00 0.00 0.00 79 1018.1
20260906164533 28 268 3.2 11.3 0.00 0.00 0.00 77 1018.1
20260906163031 27 283 1.6 14.5 0.00 0.00 0.00 79 1017.9
20260906161528 27 293 1.6 8.0 0.00 0.00 0.00 81 1018.0
20260906160008 26 239 3.2 12.9 0.00 0.00 0.00 82 1018.2
20260906154511 26 135 0.0 8.0 0.00 0.00 0.00 84 1018.3
20260906153013 26 135 0.0 8.0 0.00 0.00 0.00 85 1018.4
20260906151504 25 135 1.6 8.0 0.00 0.00 0.00 85 1018.4
20260906150016 25 135 0.0 9.7 0.00 0.00 0.00 86 1018.5
20260906144507 25 135 0.0 4.8 0.00 0.00 0.00 89 1018.5
20260906143003 24 135 0.0 4.8 0.00 0.00 0.00 90 1018.4
20260906141505 23 135 1.6 8.0 0.00 0.00 0.00 91 1018.6
20260906140003 23 135 1.6 4.8 0.00 0.00 0.00 91 1018.6
20260906134508 23 135 0.0 6.4 0.00 0.00 0.00 92 1018.6
20260906133006 23 135 0.0 8.0 0.00 0.00 0.00 92 1018.5
20260906131522 22 135 0.0 3.2 0.00 0.00 0.00 92 1018.4
20260906130009 22 135 0.0 4.8 0.00 0.00 0.00 92 1018.7
20260906124504 22 135 0.0 4.8 0.00 0.00 0.00 92 1018.4
20260906123011 22 135 0.0 3.2 0.00 0.00 0.00 91 1018.1
20260906121513 22 135 0.0 4.8 0.00 0.00 0.00 91 1017.9
20260906120007 22 135 0.0 3.2 0.00 0.00 0.00 91 1017.9
20260906114513 22 135 0.0 4.8 0.00 0.00 0.00 91 1017.4
20260906113011 22 135 0.0 6.4 0.00 0.00 0.00 91 1017.2
20260906111510 22 135 0.0 8.0 0.00 0.00 0.00 91 1017.3
20260906110009 22 135 0.0 3.2 0.00 0.00 0.00 90 1017.2
20260906104517 22 135 0.0 0.0 0.00 0.00 0.00 90 1017.3
20260906103010 22 135 0.0 3.2 0.00 0.00 0.00 90 1017.6
20260906101531 22 135 0.0 3.2 0.00 0.00 0.00 90 1017.3
20260906100015 23 135 0.0 3.2 0.00 0.00 0.00 89 1017.3
20260906094531 23 135 0.0 8.0 0.00 0.00 0.00 90 1017.3
20260906093006 23 135 0.0 3.2 0.00 0.00 0.00 89 1017.3
20260906091503 23 135 0.0 6.4 0.00 0.00 0.00 89 1017.1
20260906090011 23 135 1.6 4.8 0.00 0.00 0.00 89 1016.8
20260906084512 23 135 1.6 8.0 0.00 0.00 0.00 89 1016.6
20260906083004 23 135 0.0 6.4 0.00 0.00 0.00 89 1016.6
20260906081515 23 135 3.2 8.0 0.00 0.00 0.00 89 1016.7
20260906080006 23 135 0.0 9.7 0.00 0.00 0.00 89 1016.4
20260906074506 23 135 0.0 9.7 0.00 0.00 0.00 89 1016.4
20260906073004 24 135 1.6 8.0 0.00 0.00 0.00 89 1016.5
20260906071504 24 135 0.0 12.9 0.00 0.00 0.00 89 1016.6
20260906070006 25 135 0.0 4.8 0.00 0.00 0.00 89 1016.5
20260906064509 25 135 0.0 6.4 0.00 0.00 0.00 89 1016.6
20260906063010 25 135 0.0 3.2 0.00 0.00 0.00 89 1016.7
20260906061508 25 135 0.0 3.2 0.00 0.00 0.00 89 1016.7
20260906060004 26 135 0.0 8.0 0.00 0.00 0.00 88 1016.6
20260906054508 26 135 0.0 8.0 0.00 0.00 0.00 88 1016.6
20260906053006 26 135 0.0 9.7 0.00 0.00 0.00 87 1016.6
20260906051509 26 135 1.6 6.4 0.00 0.00 0.00 87 1016.6
20260906050009 26 135 0.0 6.4 0.00 0.00 0.00 86 1016.6
20260906044505 27 135 0.0 6.4 0.00 0.00 0.00 85 1016.5
20260906043010 27 135 0.0 6.4 0.00 0.00 0.00 84 1016.4
20260906041508 27 135 0.0 8.0 0.00 0.00 0.00 83 1016.2
20260906040007 27 135 0.0 6.4 0.00 0.00 0.00 83 1016.3
20260906034508 27 135 0.0 6.4 0.00 0.00 0.00 82 1016.0
20260906033008 28 135 0.0 3.2 0.00 0.00 0.00 81 1016.2
20260906031508 28 135 1.6 6.4 0.00 0.00 0.00 81 1016.0
20260906030008 28 135 0.0 8.0 0.00 0.00 0.00 80 1015.9
20260906024510 28 135 0.0 0.0 0.00 0.00 0.00 79 1015.7
20260906023021 28 135 0.0 6.4 0.00 0.00 0.00 79 1015.5
20260906021512 28 135 0.0 0.0 0.00 0.00 0.00 78 1015.2
20260906020016 28 135 0.0 0.0 0.00 0.00 0.00 77 1015.0
20260906014511 29 135 0.0 4.8 0.00 0.00 0.00 76 1014.9
20260906013028 29 135 1.6 6.4 0.00 0.00 0.00 75 1014.9
20260906011533 30 135 0.0 4.8 0.00 0.00 0.00 75 1014.8
20260906010015 30 135 0.0 8.0 0.00 0.00 0.00 74 1014.7
20260906004524 30 135 0.0 6.4 0.00 0.00 0.00 73 1014.6
20260906003027 30 135 0.0 6.4 0.00 0.00 0.00 72 1014.6
20260906001516 31 153 1.6 8.0 0.00 0.00 0.00 71 1014.5
20260906000016 31 223 0.0 8.0 0.00 0.00 0.00 70 1014.4
20260905234516 31 235 0.0 9.7 0.00 0.00 0.00 69 1014.4
20260905233030 31 252 1.6 12.9 0.00 0.00 0.00 69 1014.4
20260905231529 32 227 1.6 8.0 0.00 0.00 0.00 68 1014.3
20260905230031 32 206 1.6 11.3 0.00 0.00 0.00 67 1014.3
20260905224527 32 213 1.6 8.0 0.00 0.00 0.00 66 1014.3
20260905223013 32 210 3.2 11.3 0.00 0.00 0.00 66 1014.2
20260905221510 32 256 1.6 4.8 0.00 0.00 0.00 64 1014.3
20260905220005 32 175 3.2 8.0 0.00 0.00 0.00 64 1014.4
20260905214508 32 198 1.6 9.7 0.00 0.00 0.00 63 1014.5
20260905213008 33 211 3.2 9.7 0.00 0.00 0.00 62 1014.5
20260905211515 33 215 0.0 4.8 0.00 0.00 0.00 65 1014.6
20260905210005 33 286 0.0 16.1 0.00 0.00 0.00 63 1014.3
20260905204503 33 276 3.2 12.9 0.00 0.00 0.00 65 1014.2
20260905203008 32 302 3.2 8.0 0.00 0.00 0.00 66 1014.4
20260905201508 32 229 4.8 9.7 0.00 0.00 0.00 66 1014.6
20260905200030 32 211 4.8 14.5 0.00 0.00 0.00 65 1014.8
20260905194506 32 334 1.6 9.7 0.00 0.00 0.00 70 1015.0
20260905193008 32 214 4.8 12.9 0.00 0.00 0.00 69 1015.3
20260905191508 32 220 3.2 11.3 0.00 0.00 0.00 70 1015.6
20260905190008 32 170 3.2 9.7 0.00 0.00 0.00 71 1016.0
20260905184507 31 206 1.6 8.0 0.00 0.00 0.00 72 1016.1
20260905183008 31 321 0.0 9.7 0.00 0.00 0.00 73 1016.2
20260905181506 31 75 3.2 17.7 0.00 0.00 0.00 73 1016.2
20260905180016 31 99 3.2 12.9 0.00 0.00 0.00 73 1016.3
20260905174519 31 192 3.2 11.3 0.00 0.00 0.00 73 1016.4
20260905173014 31 36 3.2 9.7 0.00 0.00 0.00 72 1016.6